FW4608 Weather Reports


Display with metric or nautical units.
time (UTC)temp
F
wind
direction
speed
MPH
gust
MPH
rain 1hr
in
rain 24hr
in
rain mn
in
humidity
%
barometer
mb
20260503023554 63 150 0.0 1.0 0.00 0.23 0.23 90 1013.9
20260503023056 63 240 0.0 2.0 0.00 0.23 0.23 90 1014.0
20260503022552 63 98 0.0 2.0 0.00 0.23 0.23 90 1013.9
20260503022050 63 249 0.0 2.0 0.00 0.23 0.23 90 1013.9
20260503021551 63 2 0.0 4.0 0.00 0.23 0.23 90 1013.9
20260503021049 63 345 0.0 5.0 0.00 0.23 0.23 90 1013.9
20260503020549 63 295 0.0 5.0 0.00 0.23 0.23 90 1013.8
20260503020057 63 94 0.0 2.0 0.00 0.23 0.23 90 1013.8
20260503020004 63 319 0.0 2.0 0.00 0.23 0.23 90 1013.8
20260503015546 63 96 0.0 1.0 0.00 0.23 0.23 90 1013.8
20260503015043 63 355 0.0 2.0 0.00 0.23 0.23 90 1013.7
20260503014553 63 94 0.0 6.0 0.00 0.23 0.23 90 1013.6
20260503014043 63 69 0.0 6.0 0.00 0.23 0.23 90 1013.4
20260503013544 63 7 0.0 1.0 0.00 0.23 0.23 90 1013.5
20260503013043 63 31 0.0 2.0 0.00 0.23 0.23 90 1013.4
20260503012027 63 236 0.0 2.0 0.00 0.23 0.23 90 1013.3
20260503011524 63 281 0.0 2.0 0.00 0.23 0.23 90 1013.2
20260503011030 63 350 0.0 2.0 0.00 0.23 0.23 90 1013.1
20260503010515 63 312 0.0 2.0 0.00 0.23 0.23 90 1013.0
20260503010017 63 114 0.0 3.0 0.00 0.23 0.23 90 1013.0
20260503005519 63 282 0.0 3.0 0.00 0.23 0.23 90 1013.0
20260503004112 64 176 0.0 4.0 0.00 0.23 0.23 91 1012.8
20260503003508 64 334 0.0 3.0 0.00 0.23 0.23 91 1012.7
20260503003011 64 307 0.0 2.0 0.00 0.23 0.23 91 1012.6
20260503002510 64 352 0.0 1.0 0.00 0.23 0.23 91 1012.5
20260503002008 64 260 0.0 5.0 0.00 0.23 0.23 90 1012.3
20260503001505 64 342 0.0 5.0 0.00 0.23 0.23 90 1012.1
20260503001001 64 237 0.0 5.0 0.00 0.23 0.23 90 1012.1
20260503000503 64 239 0.0 5.0 0.00 0.23 0.23 90 1012.0
20260503000112 64 264 0.0 3.0 0.00 0.23 0.23 90 1011.9
20260502235559 64 168 0.0 2.0 0.00 0.23 0.23 90 1011.9
20260502235503 64 258 0.0 2.0 0.00 0.23 0.23 90 1011.9
20260502235103 65 236 1.0 3.0 0.00 0.23 0.23 90 1011.8
20260502234559 65 310 0.0 5.0 0.00 0.23 0.23 90 1011.5
20260502234059 65 338 0.0 7.0 0.00 0.23 0.23 90 1011.1
20260502233555 65 253 0.0 7.0 0.00 0.23 0.23 90 1011.2
20260502233052 65 321 0.0 4.0 0.00 0.23 0.23 90 1011.2
20260502232551 66 332 1.0 3.0 0.00 0.23 0.23 90 1011.2
20260502231612 66 333 1.0 4.0 0.00 0.23 0.23 90 1010.8
20260502231048 66 203 1.0 4.0 0.00 0.23 0.23 90 1010.8
20260502230545 67 316 0.0 3.0 0.00 0.23 0.23 90 1010.5
20260502230050 67 195 0.0 6.0 0.00 0.23 0.23 90 1010.5
20260502225544 67 313 1.0 8.0 0.00 0.23 0.23 89 1010.6
20260502225048 68 96 1.0 8.0 0.00 0.23 0.23 89 1010.6
20260502224554 69 101 0.0 6.0 0.00 0.23 0.23 89 1010.4
20260502224043 70 323 0.0 6.0 0.00 0.23 0.23 89 1010.2
20260502223552 70 231 0.0 2.0 0.00 0.23 0.23 89 1010.1
20260502223041 70 303 0.0 5.0 0.00 0.23 0.23 89 1009.9
20260502222541 70 276 0.0 5.0 0.00 0.23 0.23 89 1009.8
20260502222041 70 268 0.0 4.0 0.00 0.23 0.23 89 1009.7
20260502221540 70 109 0.0 3.0 0.00 0.23 0.23 89 1009.3
20260502221040 70 202 0.0 6.0 0.00 0.23 0.23 90 1009.1
20260502220541 70 356 0.0 4.0 0.00 0.23 0.23 90 1008.9
20260502220046 70 216 0.0 4.0 0.00 0.23 0.23 91 1009.1
20260502215537 70 304 0.0 2.0 0.00 0.23 0.23 91 1009.1
20260502215051 69 301 0.0 2.0 0.00 0.23 0.23 91 1009.0
20260502214536 69 250 0.0 2.0 0.00 0.23 0.23 91 1009.1
20260502214040 69 229 0.0 1.0 0.00 0.23 0.23 92 1008.9
20260502213631 68 232 0.0 1.0 0.00 0.23 0.23 92 1009.0
20260502213031 68 275 0.0 4.0 0.00 0.23 0.23 92 1008.8
20260502212533 68 216 0.0 3.0 0.00 0.23 0.23 93 1008.9
20260502212032 68 237 0.0 1.0 0.00 0.23 0.23 93 1008.8
20260502211528 68 120 0.0 2.0 0.00 0.23 0.23 93 1008.7
20260502211027 68 278 0.0 2.0 0.00 0.23 0.23 93 1008.9
20260502210531 68 105 0.0 2.0 0.00 0.23 0.23 93 1008.9
20260502210026 67 302 0.0 3.0 0.00 0.23 0.23 93 1009.0
20260502205527 67 287 0.0 3.0 0.00 0.23 0.23 93 1009.0
20260502205023 67 309 0.0 3.0 0.00 0.23 0.23 93 1009.0
20260502204529 67 257 0.0 6.0 0.00 0.23 0.23 93 1009.0
20260502204024 67 255 0.0 6.0 0.00 0.23 0.23 93 1009.1
20260502203521 67 188 0.0 2.0 0.00 0.23 0.23 93 1009.1
20260502203021 67 285 0.0 3.0 0.00 0.23 0.23 93 1009.1
20260502202521 67 301 0.0 4.0 0.00 0.23 0.23 93 1009.2
20260502202024 68 332 0.0 4.0 0.00 0.23 0.23 93 1009.2
20260502201519 68 250 1.0 4.0 0.00 0.23 0.23 93 1009.2
20260502201023 68 283 1.0 7.0 0.00 0.23 0.23 93 1009.4
20260502200519 68 275 0.0 7.0 0.00 0.23 0.23 93 1009.4
20260502200022 68 312 2.0 6.0 0.00 0.23 0.23 92 1009.2
20260502195520 68 312 1.0 9.0 0.00 0.23 0.23 92 1009.3
20260502195015 68 227 2.0 9.0 0.00 0.23 0.23 92 1009.4
20260502194516 68 236 0.0 5.0 0.00 0.23 0.23 92 1009.4
20260502194113 68 224 1.0 5.0 0.00 0.23 0.23 92 1009.5
20260502193519 68 271 1.0 3.0 0.00 0.23 0.23 92 1009.4
20260502193010 69 302 1.0 6.0 0.00 0.23 0.23 92 1009.3
20260502192510 68 248 1.0 6.0 0.00 0.23 0.23 92 1009.2
20260502192012 68 300 1.0 7.0 0.00 0.23 0.23 92 1009.1
20260502191508 69 336 0.0 10.0 0.00 0.23 0.23 92 1009.2
20260502191010 69 238 4.0 10.0 0.00 0.23 0.23 92 1009.3
20260502190509 69 250 0.0 5.0 0.00 0.23 0.23 92 1009.3
20260502190006 69 246 1.0 7.0 0.00 0.23 0.23 92 1009.2
20260502185504 69 240 1.0 7.0 0.01 0.23 0.23 92 1009.1
20260502185007 69 263 0.0 5.0 0.01 0.23 0.23 93 1009.1
20260502184507 69 232 0.0 5.0 0.01 0.23 0.23 93 1008.9
20260502184005 69 304 0.0 3.0 0.01 0.23 0.23 93 1008.7
20260502183503 69 263 0.0 3.0 0.01 0.23 0.23 93 1008.9
20260502183109 69 262 0.0 3.0 0.01 0.23 0.23 93 1008.9
20260502182700 69 320 0.0 3.0 0.01 0.23 0.23 93 1008.9
20260502182056 69 276 0.0 3.0 0.01 0.23 0.23 93 1008.8
20260502181603 69 253 0.0 5.0 0.03 0.23 0.23 93 1008.9
20260502181055 68 252 0.0 5.0 0.04 0.23 0.23 93 1008.9
20260502180554 68 226 0.0 3.0 0.05 0.23 0.23 93 1009.1
20260502164052 71 243 0.0 3.0 0.13 0.16 0.16 93 1009.3
20260502163530 71 30 0.0 1.0 0.10 0.13 0.13 93 1009.4
20260502163036 71 15 0.0 1.0 0.09 0.12 0.12 93 1009.2
20260502162529 71 159 0.0 1.0 0.07 0.10 0.10 92 1009.3
20260502162029 71 267 0.0 1.0 0.04 0.07 0.07 92 1009.4
20260502161536 71 198 0.0 2.0 0.02 0.05 0.05 92 1009.8
20260502161035 71 158 0.0 2.0 0.01 0.04 0.04 92 1009.7
20260502160526 71 96 0.0 2.0 0.00 0.03 0.03 92 1009.8
20260502152011 70 117 0.0 1.0 0.03 0.03 0.03 92 1009.7
20260502151511 70 243 0.0 0.0 0.03 0.03 0.03 92 1010.0
20260502151009 70 243 0.0 0.0 0.03 0.03 0.03 92 1010.0
20260502150510 70 243 0.0 0.0 0.03 0.03 0.03 92 1010.0
20260502130552 69 5 0.0 0.0 0.00 0.00 0.00 89 1010.4
20260502130107 69 5 0.0 0.0 0.00 0.00 0.00 89 1010.3
20260502123543 69 108 0.0 1.0 0.00 0.00 0.00 89 1009.8
20260502123111 69 108 0.0 0.0 0.00 0.00 0.00 89 1009.8
20260502122544 69 108 0.0 0.0 0.00 0.00 0.00 89 1009.7
20260502122042 69 108 0.0 1.0 0.00 0.00 0.00 89 1009.7
20260502121546 69 108 0.0 1.0 0.00 0.00 0.00 89 1009.6
20260502121040 69 337 0.0 1.0 0.00 0.00 0.00 90 1009.6
20260502120538 69 332 0.0 1.0 0.00 0.00 0.00 90 1009.7
20260502115536 68 338 0.0 1.0 0.00 0.00 0.00 90 1009.6
20260502115034 68 75 0.0 0.0 0.00 0.00 0.00 91 1009.7
20260502114535 68 75 0.0 0.0 0.00 0.00 0.00 91 1009.6
20260502114033 68 75 0.0 0.0 0.00 0.00 0.00 91 1009.6
20260502113520 68 75 0.0 0.0 0.00 0.00 0.00 91 1009.5
20260502113020 68 58 0.0 0.0 0.00 0.00 0.00 92 1009.5
20260502112523 67 58 0.0 0.0 0.00 0.00 0.00 92 1009.7
20260502112027 67 322 0.0 0.0 0.00 0.00 0.00 92 1009.8
20260502111522 67 322 0.0 0.0 0.00 0.00 0.00 92 1009.5
20260502111018 67 322 0.0 0.0 0.00 0.00 0.00 92 1009.3
20260502110537 67 322 0.0 0.0 0.00 0.00 0.00 92 1009.2
20260502110045 67 322 0.0 0.0 0.00 0.00 0.00 92 1009.3
20260502105536 67 322 0.0 0.0 0.00 0.00 0.00 92 1009.1
20260502105036 66 326 0.0 0.0 0.00 0.00 0.00 92 1009.1
20260502104536 66 326 0.0 0.0 0.00 0.00 0.00 92 1008.9
20260502104035 66 326 0.0 0.0 0.00 0.00 0.00 92 1008.9
20260502103536 66 326 0.0 0.0 0.00 0.00 0.00 92 1008.8
20260502103034 66 326 0.0 0.0 0.00 0.00 0.00 92 1008.6
20260502102535 66 322 0.0 0.0 0.00 0.00 0.00 92 1008.6
20260502102037 66 322 0.0 0.0 0.00 0.00 0.00 92 1008.6
20260502101533 66 323 0.0 0.0 0.00 0.00 0.00 91 1008.5
20260502101032 66 322 0.0 0.0 0.00 0.00 0.00 91 1008.3
20260502100530 66 322 0.0 0.0 0.00 0.00 0.00 91 1008.2
20260502091525 67 322 0.0 1.0 0.00 0.00 0.00 91 1008.4
20260502091025 67 20 0.0 0.0 0.00 0.00 0.00 91 1007.7
20260502090520 67 20 0.0 0.0 0.00 0.00 0.00 91 1008.2
20260502071513 67 20 0.0 0.0 0.00 0.00 0.00 90 1010.5
20260502071011 67 20 0.0 0.0 0.00 0.00 0.00 90 1010.6
20260502070518 67 20 0.0 0.0 0.00 0.00 0.00 90 1010.5
20260502070014 67 20 0.0 0.0 0.00 0.00 0.00 90 1010.4
20260502065517 67 20 0.0 0.0 0.00 0.00 0.00 90 1010.2
20260502065012 67 20 0.0 0.0 0.00 0.00 0.00 90 1010.3
20260502064509 67 20 0.0 0.0 0.00 0.00 0.00 90 1010.2
20260502064009 67 20 0.0 0.0 0.00 0.00 0.00 90 1010.1
20260502063508 67 20 0.0 0.0 0.00 0.00 0.00 90 1010.1
20260502063007 67 20 0.0 0.0 0.00 0.00 0.00 89 1010.4
20260502062506 67 20 0.0 0.0 0.00 0.00 0.00 89 1010.4
20260502062006 67 20 0.0 0.0 0.00 0.00 0.00 89 1010.2
20260502061505 67 20 0.0 0.0 0.00 0.00 0.00 89 1010.4
20260502061005 67 20 0.0 0.0 0.00 0.00 0.00 89 1010.7
20260502060504 67 20 0.0 0.0 0.00 0.00 0.00 89 1010.8
20260502060005 67 20 0.0 0.0 0.00 0.00 0.00 89 1011.1
20260502055604 67 20 0.0 0.0 0.00 0.00 0.00 89 1011.0
20260502055018 67 20 0.0 0.0 0.00 0.00 0.00 89 1010.8
20260502054556 67 20 0.0 0.0 0.00 0.00 0.00 88 1010.9
20260502054054 67 20 0.0 0.0 0.00 0.00 0.00 88 1011.0
20260502053555 67 20 0.0 0.0 0.00 0.00 0.00 88 1011.1
20260502053051 67 20 0.0 0.0 0.00 0.00 0.00 88 1011.0
20260502052551 67 20 0.0 0.0 0.00 0.00 0.00 88 1011.1
20260502052059 68 20 0.0 0.0 0.00 0.00 0.00 88 1011.2
20260502051551 68 20 0.0 0.0 0.00 0.00 0.00 88 1011.3
20260502051051 68 20 0.0 0.0 0.00 0.00 0.00 87 1011.3
20260502050600 68 20 0.0 0.0 0.00 0.00 0.00 87 1011.5
20260502050045 68 20 0.0 0.0 0.00 0.00 0.00 87 1011.4
20260502045548 69 20 0.0 0.0 0.00 0.00 0.00 87 1011.3
20260502045042 69 20 0.0 0.0 0.00 0.00 0.00 87 1011.4
20260502044542 69 20 0.0 0.0 0.00 0.00 0.00 87 1011.3
20260502044044 69 20 0.0 0.0 0.00 0.00 0.00 87 1011.3
20260502043538 69 20 0.0 0.0 0.00 0.00 0.00 87 1011.3
20260502043037 69 20 0.0 0.0 0.00 0.00 0.00 86 1011.4
20260502042537 70 20 0.0 0.0 0.00 0.00 0.00 86 1011.4
20260502042037 70 20 0.0 0.0 0.00 0.00 0.00 86 1011.4
20260502041535 70 20 0.0 0.0 0.00 0.00 0.00 86 1011.6
20260502041030 70 20 0.0 0.0 0.00 0.00 0.00 85 1011.4
20260502040529 70 20 0.0 1.0 0.00 0.00 0.00 85 1011.5
20260502040029 71 20 0.0 1.0 0.00 0.00 0.00 85 1011.6
20260502035528 71 20 0.0 1.0 0.00 0.00 0.00 85 1011.5
20260502035026 71 25 0.0 1.0 0.00 0.00 0.00 85 1011.4
20260502034526 71 304 0.0 1.0 0.00 0.00 0.00 85 1011.2
20260502034026 71 304 0.0 3.0 0.00 0.00 0.00 85 1011.2
20260502033530 71 72 0.0 1.0 0.00 0.00 0.00 85 1011.4
20260502033026 71 91 0.0 2.0 0.00 0.00 0.00 85 1011.4
20260502032526 70 245 0.0 1.0 0.00 0.00 0.00 85 1011.4
20260502032024 70 207 0.0 1.0 0.00 0.00 0.00 85 1011.3
20260502031524 70 207 0.0 1.0 0.00 0.00 0.00 85 1011.3
20260502031026 71 308 0.0 2.0 0.00 0.00 0.00 85 1011.5
20260502030522 71 23 0.0 2.0 0.00 0.00 0.00 84 1010.7
20260502030030 71 293 0.0 2.0 0.00 0.00 0.00 84 1010.9
20260502025524 71 27 0.0 1.0 0.00 0.00 0.00 84 1011.4
20260502025024 71 304 0.0 3.0 0.00 0.00 0.00 84 1011.4
20260502024519 71 100 0.0 3.0 0.00 0.00 0.00 84 1011.4
20260502024018 71 335 0.0 2.0 0.00 0.00 0.00 84 1011.7